Temp
-5 -6 -6 -9 -8 -8 -7 -6 -7 -8 -9 -7 -7 -6 -8 -7 -8 -9 -7 -8 -8 -6 -6 -6 -6 -7 -7 -6 -6 -6 -6 -6 -6 -7 -7 -6 -7 -7 -6 -7 -7 -7 -6 -6
-6 -6 -7 -7 -7 -7 -7 -7 -7 -9 -8 -7 -7 -8 -8 -8 -7 -7 -7 -7 -7 -6 -6 -6 -6 -7 -6 -6 -7 -7 -6 -6 -6 -6 -6 -6 -6 -7 -7 -7 -7 -6 -6 -6
-6 -8 -9 -7 -6 -6 -7 -7 -7 -8 -7 -7 -8 -7 -8 -8 -7 -7 -7 -7 -7 -7 -7 -6 -7 -7 -6 -6 -6 -7 -6 -6 -6 -6 -6 -6 -7 -7 -6 -7 -6 -6 -6 -6
-6 -7 -7 -7 -7 -7 -7 -8 -8 -7 -6 -6 -7 -6 -8 -8 -7 -8 -8 -7 -7 -7 -7 -7 -6 -7 -6 -6 -6 -6 -7 -6 -6 -6 -7 -7 -6 -7 -7 -7 -6 -5 -6 -6
-7 -9 -7 -7 -7 -7 -7 -7 -7 -6 -6 -6 -7 -7 -7 -7 -7 -8 -8 -6 -7 -8 -7 -7 -6 -7 -7 -6 -6 -6 -7 -7 -7 -7 -7 -6 -7 -7 -6 -6 -6 -6 -6 -6
-7 -7 -7 -7 -7 -7 -7 -7 -6 -6 -6 -7 -8 -7 -6 -7 -8 -8 -8 -7 -7 -8 -8 -8 -7 -7 -7 -7 -7 -7 -7 -7 -7 -6 -6 -6 -7 -6 -6 -6 -6 -6 -6 -6
-7 -7 -8 -7 -7 -7 -7 -7 -8 -7 -8 -7 -7 -7 -7 -8 -7 -6 -7 -9 -7 -8 -8 -8 -8 -7 -7 -7 -7 -7 -7 -6 -6 -6 -6 -7 -7 -6 -6 -6 -6 -6 -6 -6
-8 -8 -9 -9 -7 -8 -9 -8 -8 -7 -7 -6 -7 -7 -7 -7 -8 -8 -9 -9 -8 -8 -8 -8 -8 -8 -8 -7 -7 -7 -7 -7 -7 -7 -7 -6 -7 -7 -6 -6 -6 -6 -6 -6
-9 -8 -9 -8 -8 -8 -9 -8 -8 -8 -7 -7 -6 -7 -8 -8 -8 -9 -9 -8 -9 -8 -9 -8 -8 -8 -8 -8 -7 -7 -7 -7 -7 -7 -7 -7 -7 -7 -6 -6 -6 -6 -6 -7
-8 -8 -9 -9 -9 -8 -8 -8 -8 -8 -8 -7 -7 -7 -8 -8 -8 -9 -8 -8 -8 -8 -8 -9 -8 -8 -8 -8 -8 -7 -7 -7 -7 -7 -7 -7 -7 -7 -6 -7 -7 -6 -7 -7
-7 -8 -8 -9 -9 -9 -9 -9 -9 -9 -8 -8 -7 -7 -8 -9 -9 -9 -9 -8 -8 -9 -8 -9 -9 -8 -8 -8 -8 -8 -7 -7 -7 -7 -7 -7 -7 -7 -7 -7 -7 -7 -7 -7
-8 -8 -8 -9 -9 -9 -9 -9 -9 -9 -9 -8 -8 -7 -8 -9 -7 -9 -9 -9 -9 -9 -9 -9 -9 -9 -8 -8 -8 -8 -8 -7 -7 -7 -7 -8 -7 -7 -7 -7 -7 -8 -8 -7
-7 -8 -8 -7 -8 -9 -10 -9 -9 -9 -9 -9 -8 -8 -9 -8 -8 -8 -8 -8 -9 -9 -9 -9 -9 -9 -8 -9 -8 -8 -8 -8 -7 -7 -7 -8 -8 -7 -7 -7 -7 -7 -7 -7
-8 -8 -8 -8 -8 -8 -10 -9 -10 -9 -9 -9 -9 -9 -8 -9 -8 -9 -9 -9 -9 -9 -10 -10 -10 -9 -9 -9 -9 -9 -8 -8 -8 -8 -8 -7 -8 -7 -7 -7 -7 -7 -7 -7
-8 -8 -8 -9 -9 -8 -8 -9 -9 -9 -8 -9 -9 -8 -9 -9 -10 -9 -9 -8 -9 -9 -9 -10 -10 -10 -9 -9 -8 -9 -8 -8 -8 -8 -8 -8 -7 -7 -7 -7 -7 -7 -7 -7
-8 -8 -8 -8 -9 -9 -9 -9 -9 -9 -9 -10 -10 -9 -9 -9 -12 -10 -8 -8 -9 -9 -9 -10 -10 -10 -10 -10 -10 -9 -9 -9 -8 -8 -8 -8 -8 -8 -7 -7 -7 -7 -7 -7
-9 -9 -9 -8 -9 -9 -9 -9 -11 -11 -11 -12 -12 -12 -12 -11 -10 -11 -11 -8 -7 -8 -9 -10 -10 -10 -10 -10 -10 -10 -9 -9 -9 -9 -9 -8 -8 -7 -7 -7 -7 -7 -7 -7
-9 -9 -9 -9 -9 -9 -10 -12 -12 -12 -12 -12 -11 -12 -11 -10 -10 -9 -9 -9 -9 -9 -9 -10 -9 -10 -10 -10 -10 -9 -9 -9 -9 -9 -9 -9 -8 -8 -7 -7 -7 -7 -7 -7
-9 -10 -10 -10 -11 -10 -11 -12 -12 -13 -13 -12 -11 -11 -11 -10 -10 -12 -11 -9 -9 -9 -9 -9 -10 -10 -10 -10 -10 -10 -10 -10 -10 -10 -9 -9 -8 -8 -8 -7 -7 -8 -8 -7
-10 -11 -11 -11 -12 -11 -12 -13 -12 -13 -13 -12 -12 -11 -12 -11 -11 -11 -10 -10 -9 -10 -10 -9 -10 -10 -10 -10 -11 -10 -10 -10 -10 -10 -10 -9 -9 -8 -8 -8 -8 -7 -7 -7
-12 -12 -12 -14 -14 -14 -14 -14 -13 -13 -13 -13 -12 -12 -12 -12 -12 -12 -12 -11 -10 -10 -10 -10 -10 -10 -10 -11 -11 -11 -10 -9 -10 -10 -9 -9 -9 -9 -9 -9 -8 -8 -7 -7
-12 -12 -13 -14 -15 -14 -12 -13 -14 -13 -13 -13 -13 -13 -13 -12 -12 -11 -12 -11 -11 -10 -10 -10 -10 -10 -10 -10 -11 -10 -10 -10 -10 -10 -9 -9 -9 -9 -9 -8 -8 -8 -7 -7
-13 -13 -12 -13 -13 -14 -13 -13 -12 -13 -13 -13 -13 -13 -13 -12 -12 -12 -11 -11 -11 -10 -10 -10 -10 -10 -10 -10 -11 -11 -11 -10 -10 -9 -9 -9 -9 -9 -8 -8 -8 -7 -7 -7
-13 -12 -12 -12 -13 -13 -14 -14 -14 -13 -13 -13 -13 -12 -12 -12 -12 -11 -11 -11 -11 -11 -10 -10 -11 -10 -10 -10 -10 -10 -10 -10 -10 -9 -9 -9 -9 -9 -9 -8 -8 -7 -7 -7
-13 -12 -12 -13 -13 -13 -14 -14 -14 -13 -13 -13 -13 -12 -12 -12 -12 -12 -12 -12 -12 -12 -12 -11 -11 -11 -10 -11 -10 -10 -10 -10 -10 -10 -10 -9 -9 -9 -9 -8 -8 -7 -7 -7
-13 -13 -13 -13 -13 -13 -13 -13 -13 -13 -13 -12 -12 -12 -12 -12 -13 -13 -12 -12 -12 -12 -12 -11 -11 -11 -11 -10 -10 -10 -10 -10 -10 -10 -10 -9 -9 -9 -9 -9 -8 -8 -7 -7
Height
5910 5911 5910 5913 5918 5916 5914 5914 5914 5913 5911 5907 5905 5904 5904 5903 5901 5898 5896 5894 5893 5890 5888 5889 5888 5886 5885 5881 5883 5882 5886 5885 5884 5886 5887 5888 5889 5890 5893 5894 5891 5894 5895 5897
5909 5909 5910 5910 5910 5911 5911 5911 5911 5910 5911 5907 5905 5904 5904 5903 5902 5900 5895 5893 5893 5890 5889 5888 5886 5886 5883 5883 5881 5881 5881 5883 5882 5883 5885 5887 5888 5889 5891 5890 5890 5869 5893 5895
5907 5909 5911 5909 5908 5908 5909 5909 5909 5909 5906 5906 5904 5905 5905 5904 5900 5899 5896 5895 5893 5891 5887 5887 5885 5884 5883 5881 5881 5880 5880 5880 5880 5881 5882 5884 5886 5887 5887 5887 5883 5889 5890 5895
5904 5905 5906 5906 5906 5906 5907 5908 5908 5906 5905 5904 5903 5903 5904 5899 5900 5896 5896 5897 5894 5891 5889 5886 5885 5883 5882 5882 5880 5879 5879 5879 5879 5879 5881 5881 5883 5884 5883 5884 5885 5881 5890 5893
5902 5903 5902 5902 5903 5903 5904 5904 5904 5904 5903 5902 5903 5906 5899 5900 5897 5896 5896 5894 5894 5892 5889 5884 5883 5883 5881 5879 5878 5879 5877 5878 5878 5878 5879 5879 5880 5880 5879 5879 5882 5882 5888 5893
5900 5899 5901 5900 5899 5900 5901 5901 5902 5903 5901 5900 5904 5906 5909 5899 5897 5894 5894 5891 5891 5890 5888 5886 5881 5881 5880 5879 5878 5876 5877 5876 5877 5877 5877 5877 5877 5877 5878 5878 5881 5884 5888 5892
5898 5898 5897 5897 5897 5898 5899 5900 5901 5903 5902 5901 5898 5903 5905 5899 5895 5894 5892 5889 5886 5888 5886 5885 5882 5879 5878 5876 5876 5876 5875 5875 5876 5875 5875 5876 5875 5874 5874 5875 5879 5882 5886 5890
5901 5904 5900 5897 5896 5898 5900 5902 5904 5903 5903 5906 5902 5901 5901 5896 5892 5890 5888 5887 5884 5885 5882 5883 5882 5881 5878 5874 5874 5874 5875 5875 5875 5874 5873 5874 5873 5872 5865 5871 5876 5881 5886 5889
5898 5902 5898 5896 5896 5894 5896 5898 5901 5901 5901 5902 5904 5898 5892 5883 5888 5887 5884 5883 5882 5882 5880 5880 5880 5879 5877 5875 5874 5873 5873 5873 5873 5872 5872 5871 5870 5869 5867 5870 5875 5881 5883 5885
5891 5892 5894 5896 5891 5891 5892 5893 5895 5897 5897 5896 5896 5892 5885 5889 5887 5884 5876 5882 5881 5879 5879 5876 5876 5876 5876 5874 5872 5872 5871 5871 5871 5870 5870 5870 5869 5868 5869 5868 5874 5878 5878 5881
5886 5886 5888 5889 5891 5892 5893 5888 5890 5892 5892 5892 5893 5892 5882 5881 5883 5882 5867 5873 5876 5876 5877 5875 5874 5874 5874 5873 5872 5870 5870 5869 5869 5869 5869 5869 5868 5868 5868 5872 5873 5875 5878 5882
5879 5877 5879 5880 5881 5882 5883 5886 5887 5886 5887 5887 5885 5888 5879 5876 5872 5863 5861 5865 5870 5871 5872 5872 5871 5870 5871 5871 5870 5869 5867 5868 5867 5866 5866 5867 5867 5868 5869 5871 5872 5872 5878 5881
5875 5876 5873 5874 5877 5881 5874 5879 5878 5880 5880 5879 5881 5886 5872 5869 5867 5860 5856 5863 5866 5866 5867 5867 5867 5867 5866 5867 5867 5867 5866 5865 5865 5864 5863 5864 5865 5866 5868 5871 5873 5871 5875 5878
5866 5867 5867 5866 5866 5869 5866 5867 5869 5869 5869 5871 5869 5873 5870 5851 5844 5847 5848 5851 5857 5859 5861 5863 5862 5862 5863 5863 5864 5862 5864 5862 5862 5862 5862 5861 5863 5864 5866 5868 5870 5871 5872 5875
5859 5856 5856 5856 5856 5857 5858 5858 5857 5857 5858 5858 5860 5860 5860 5852 5838 5837 5843 5841 5850 5851 5855 5858 5857 5857 5858 5859 5860 5860 5859 5860 5860 5859 5859 5859 5860 5861 5863 5864 5867 5869 5871 5872
5846 5847 5846 5845 5846 5846 5845 5847 5848 5848 5846 5845 5846 5846 5850 5853 5836 5825 5828 5831 5840 5846 5851 5852 5853 5852 5852 5853 5855 5856 5856 5855 5855 5855 5855 5856 5855 5855 5858 5861 5863 5865 5867 5871
5841 5839 5837 5837 5836 5835 5835 5838 5836 5835 5834 5834 5835 5839 5829 5830 5828 5823 5819 5821 5827 5837 5840 5840 5841 5843 5846 5846 5849 5851 5852 5851 5852 5851 5851 5851 5850 5850 5853 5857 5859 5861 5863 5866
5832 5831 5829 5828 5826 5825 5828 5825 5825 5821 5819 5822 5820 5815 5813 5812 5814 5813 5817 5820 5822 5824 5826 5828 5830 5833 5837 5839 5839 5843 5846 5847 5847 5848 5847 5847 5846 5847 5848 5851 5854 5856 5859 5860
5824 5822 5820 5817 5816 5815 5817 5816 5812 5806 5808 5804 5805 5804 5803 5803 5805 5805 5806 5807 5809 5814 5814 5816 5818 5822 5826 5829 5831 5834 5838 5842 5842 5843 5843 5843 5843 5843 5844 5846 5848 5850 5852 5856
5813 5814 5811 5809 5805 5805 5807 5798 5799 5798 5798 5792 5793 5789 5791 5792 5792 5790 5793 5795 5797 5801 5804 5806 5808 5811 5814 5819 5821 5824 5830 5833 5836 5838 5838 5838 5839 5840 5840 5843 5844 5845 5846 5849
5805 5799 5798 5796 5794 5796 5788 5786 5785 5787 5786 5779 5778 5778 5779 5780 5778 5780 5780 5782 5785 5789 5792 5794 5796 5799 5803 5808 5811 5815 5819 5826 5829 5831 5832 5833 5834 5836 5837 5838 5839 5839 5841 5843
5795 5791 5789 5786 5785 5785 5778 5778 5772 5770 5768 5767 5768 5766 5767 5767 5766 5766 5770 5770 5772 5775 5778 5782 5784 5787 5791 5795 5800 5804 5809 5817 5820 5823 5826 5828 5829 5830 5832 5832 5832 5833 5834 5835
5781 5777 5773 5777 5774 5772 5765 5764 5764 5762 5758 5758 5756 5755 5753 5753 5754 5754 5755 5758 5760 5761 5764 5766 5771 5775 5778 5782 5789 5794 5802 5804 5811 5813 5816 5821 5823 5823 5825 5825 5826 5828 5828 5829
5770 5764 5763 5764 5766 5759 5758 5754 5750 5748 5744 5743 5744 5742 5742 5741 5741 5740 5741 5743 5745 5747 5749 5753 5755 5760 5765 5770 5777 5782 5788 5793 5800 5803 5806 5808 5814 5816 5817 5818 5820 5821 5822 5823
5759 5759 5754 5755 5750 5749 5748 5743 5740 5736 5733 5730 5730 5730 5729 5728 5726 5725 5725 5727 5728 5731 5734 5737 5741 5747 5752 5757 5764 5771 5777 5782 5789 5793 5797 5801 5806 5809 5810 5811 5812 5814 5815 5817
5752 5749 5747 5746 5742 5737 5739 5734 5731 5726 5723 5720 5716 5715 5714 5712 5711 5710 5711 5711 5713 5715 5717 5722 5726 5733 5739 5744 5751 5760 5763 5770 5776 5782 5787 5791 5796 5799 5802 5804 5806 5807 5808 5808
Wind_Speed
5 5 4 2 6 17 17 15 15 11 14 13 12 13 18 13 8 21 12 16 17 22 17 12 14 10 10 12 7 12 6 9 10 12 10 7 6 7 12 15 18 15 8 10
9 8 8 8 9 12 11 11 11 10 16 13 13 14 18 14 17 27 18 16 16 21 20 17 10 6 10 7 5 7 10 8 11 12 11 9 11 12 13 20 21 19 12 10
11 7 12 11 10 12 11 12 12 13 13 9 12 14 8 13 21 21 9 17 17 19 22 18 13 9 9 8 3 6 8 8 8 11 12 10 11 11 17 21 27 15 11 11
12 11 15 13 10 11 10 8 12 13 11 10 9 10 13 17 21 12 13 11 15 18 18 20 16 14 15 11 8 6 6 8 8 10 12 11 10 12 15 14 26 21 13 9
8 10 9 11 11 11 10 11 10 8 11 5 10 10 14 15 20 4 10 25 10 11 16 22 19 15 14 13 13 7 6 6 10 10 11 13 11 12 13 12 15 17 15 9
8 12 11 12 13 11 10 10 8 5 12 10 10 5 6 13 3 18 21 22 12 12 14 19 23 20 18 13 10 7 6 7 9 9 11 11 11 12 14 13 14 18 14 8
12 12 25 14 10 8 7 8 9 11 15 11 8 2 10 17 27 28 31 14 20 12 15 17 21 20 18 14 11 7 8 6 11 7 9 11 9 11 15 14 18 19 13 8
5 8 13 14 6 6 9 9 11 12 14 12 17 18 13 22 18 14 5 12 20 16 17 17 17 15 16 18 14 9 9 10 10 9 12 12 11 11 11 8 19 17 14 9
9 2 17 22 23 14 8 8 9 14 11 14 9 23 8 12 5 2 10 16 16 20 17 18 19 12 11 15 15 14 11 10 12 12 10 11 10 9 9 10 13 17 12 11
15 18 13 7 18 18 9 6 11 12 15 15 15 17 25 17 18 11 20 13 22 23 16 18 19 14 10 13 16 15 15 12 12 14 12 12 12 8 7 6 10 8 12 13
19 19 16 16 15 16 12 21 12 13 13 15 15 17 18 18 20 26 38 23 20 21 18 18 19 16 11 12 13 16 15 14 12 13 14 13 12 10 8 7 7 8 8 10
20 21 18 18 23 26 23 18 21 22 17 18 21 19 24 26 28 25 32 29 22 22 25 25 18 22 16 15 12 13 16 14 13 12 13 14 13 14 11 5 4 8 8 10
21 21 25 23 17 7 17 21 19 25 24 28 24 19 31 39 44 33 36 34 26 29 30 27 22 21 17 14 14 12 14 16 14 12 16 17 15 16 15 12 10 11 10 10
26 26 28 28 26 25 29 23 20 24 17 23 25 23 37 34 19 24 32 25 31 26 27 25 23 26 21 20 14 15 12 14 15 14 15 18 18 18 17 16 13 12 13 13
29 32 31 31 31 30 31 38 40 37 37 37 40 38 35 32 42 34 49 32 32 25 31 29 28 28 27 20 22 18 19 14 14 15 16 17 18 18 19 18 18 16 16 15
37 32 33 34 31 31 33 33 35 40 41 43 41 43 39 46 38 46 43 45 29 19 26 31 29 32 31 28 22 22 21 16 16 16 16 16 12 23 20 19 21 19 19 16
32 33 34 32 32 33 36 31 27 26 28 29 28 26 39 43 52 49 56 60 49 31 34 42 38 38 37 33 32 25 27 18 13 14 16 15 16 17 24 22 22 23 20 18
32 31 32 34 36 39 32 25 27 37 39 33 35 43 49 52 52 52 51 49 47 44 40 41 41 38 39 38 36 33 29 19 16 14 13 15 16 16 22 25 25 25 24 23
28 31 34 37 38 40 36 24 32 35 28 30 37 44 48 47 46 42 46 46 44 37 39 40 40 39 40 40 39 37 32 34 19 17 15 15 14 14 18 22 26 27 26 25
37 34 37 39 40 39 30 36 35 39 42 45 45 48 44 44 42 45 45 44 43 33 31 32 38 40 42 43 44 41 37 37 23 22 20 15 13 13 17 16 19 21 25 28
36 41 42 35 32 26 31 37 40 42 45 47 52 49 44 40 41 40 41 43 42 39 32 32 36 39 42 45 47 42 29 31 29 27 23 20 17 13 15 16 18 20 20 26
40 42 41 36 32 31 37 37 47 42 47 47 43 40 37 38 40 42 40 43 44 43 42 37 37 38 43 45 52 52 38 35 33 31 28 25 19 15 15 16 17 15 18 21
39 41 42 32 31 34 42 42 43 46 46 42 39 37 39 40 41 42 42 42 43 46 48 47 42 42 44 47 51 55 47 41 38 36 33 30 23 19 18 18 16 14 15 19
36 40 39 33 27 33 38 40 41 38 39 37 36 37 37 39 41 43 45 47 47 47 49 48 44 43 44 48 48 53 49 42 40 41 38 33 29 24 21 21 17 15 15 17
36 34 34 27 27 26 24 32 35 39 40 40 38 36 37 37 39 41 40 41 42 44 46 46 46 42 44 48 49 52 52 51 47 43 42 37 34 30 26 24 20 18 18 21
28 25 24 21 26 31 25 29 33 38 40 40 40 41 38 34 36 38 40 41 42 41 42 43 44 39 45 49 51 53 53 57 53 47 46 40 39 34 30 25 24 18 18 16
Wind_Direction
298 292 306 282 249 259 249 239 254 289 299 311 323 345 353 333 324 310 12 357 336 356 4 351 341 325 317 318 317 310 283 272 268 266 267 260 261 246 222 230 226 202 199 203
289 295 299 272 246 257 254 259 279 303 299 312 321 345 354 326 340 343 331 347 355 356 359 355 337 322 315 335 341 298 303 293 276 266 266 257 252 238 244 238 231 252 215 212
276 254 257 288 273 270 267 285 293 292 290 295 349 313 317 311 315 329 351 352 348 355 345 357 358 330 309 311 340 289 297 309 289 269 266 257 264 265 263 254 225 204 207 212
279 270 263 283 277 276 275 265 266 290 310 317 299 359 344 282 319 355 2 309 316 344 350 356 4 327 320 312 307 270 285 304 294 276 264 273 269 276 283 272 219 191 193 199
272 274 278 271 269 263 269 264 283 325 336 290 21 323 326 313 309 230 278 317 311 329 350 349 8 4 331 340 331 271 245 281 283 274 267 269 271 271 273 270 214 171 175 193
273 278 304 275 268 275 276 279 286 311 342 322 298 209 299 283 259 276 302 308 313 314 329 340 343 355 352 334 332 337 279 245 277 276 262 261 273 278 267 246 226 181 175 187
346 348 324 313 278 277 285 292 313 325 302 358 301 193 275 278 283 291 304 292 302 312 317 324 334 343 346 345 332 329 304 269 261 276 259 259 268 272 257 241 196 183 179 194
279 296 280 290 306 281 237 270 277 289 298 275 312 327 286 284 266 303 303 279 284 299 305 316 323 330 333 341 336 326 305 282 269 267 261 257 256 278 267 250 190 183 190 207
227 222 276 275 294 289 262 258 279 284 285 285 282 272 248 222 261 293 239 269 305 312 297 302 307 314 334 333 333 322 298 293 274 270 264 251 252 274 281 187 179 180 196 217
246 222 237 272 284 313 325 256 248 248 271 271 267 285 290 297 252 273 272 264 306 302 289 291 297 295 307 327 332 328 310 288 282 262 260 250 246 248 266 305 144 197 216 219
263 260 246 236 252 276 287 296 277 270 253 266 281 300 307 308 288 268 270 273 294 295 282 284 289 278 285 311 318 323 316 299 281 275 265 250 243 240 248 276 177 219 215 211
276 266 271 250 227 233 244 247 266 288 278 269 253 233 280 295 272 218 248 258 288 282 279 276 282 274 268 295 308 312 314 307 293 277 270 248 243 236 228 230 202 245 240 224
276 271 269 266 265 283 280 258 253 254 265 255 249 264 275 267 255 274 271 285 279 279 272 264 272 261 260 279 301 311 306 303 302 279 264 248 245 243 231 216 207 231 240 223
277 275 274 274 269 226 246 241 247 241 242 270 237 249 245 286 252 264 270 260 270 250 255 262 259 264 267 277 293 293 303 305 302 289 264 258 251 247 236 229 216 221 240 245
283 283 279 275 272 267 251 249 249 243 245 248 252 239 241 254 266 280 254 269 248 241 244 253 263 267 270 257 273 281 284 288 293 290 274 259 254 246 243 233 225 220 225 231
291 286 279 278 276 273 271 266 260 263 266 265 264 265 251 242 272 272 275 258 240 250 258 260 260 262 260 264 257 273 266 279 282 287 279 268 267 252 241 234 227 219 221 222
282 281 282 280 279 277 275 285 281 276 265 259 261 260 250 247 244 249 251 259 267 277 266 265 260 255 255 254 258 258 259 259 276 281 276 281 270 248 236 233 228 225 225 223
280 281 279 280 279 279 289 278 270 265 261 257 249 236 246 249 254 253 253 260 262 261 257 252 254 250 250 251 252 252 255 249 265 278 279 283 278 260 239 238 237 234 231 232
281 282 282 284 285 287 287 288 259 257 257 256 264 258 260 262 260 264 261 259 259 256 255 250 251 249 246 242 246 248 250 251 252 272 277 277 282 282 248 244 237 236 238 242
290 283 282 285 285 285 279 258 256 261 260 263 269 266 261 262 262 263 261 259 261 257 255 255 249 245 244 239 239 242 238 252 243 258 265 270 278 277 284 263 246 243 245 246
285 289 292 291 287 288 268 263 270 266 262 261 269 273 269 263 262 259 258 255 253 252 254 256 253 246 242 238 240 235 221 229 235 245 256 259 274 273 280 273 268 259 253 250
286 283 280 271 266 263 262 267 256 262 278 280 281 278 272 266 264 260 253 260 260 258 260 259 260 251 241 237 235 235 214 223 233 239 249 251 261 267 259 266 268 271 257 248
289 284 282 287 278 271 274 274 275 277 278 277 278 273 269 265 260 259 257 253 253 257 259 260 255 247 240 237 233 239 240 224 229 234 240 245 247 252 251 255 262 262 263 246
279 282 288 292 291 273 273 282 282 281 283 281 277 277 273 271 270 267 261 260 259 256 256 255 249 237 238 237 232 234 237 231 233 235 232 232 241 244 247 247 248 255 256 254
281 288 295 297 288 287 278 273 276 279 283 285 286 282 278 272 268 267 266 263 260 256 253 249 248 240 234 234 232 230 233 234 232 235 235 232 237 239 243 241 238 242 247 253
294 297 295 298 293 293 290 280 281 283 286 288 284 279 281 275 266 264 264 263 263 257 252 248 248 242 236 232 230 227 230 230 229 231 236 233 238 239 238 237 237 236 237 218